Year,Month,Day,Hour,Minute,Value (Times are PST for temperature in C)
2012,04,23,00,00,11.30
2012,04,23,00,01,11.30
2012,04,23,00,02,11.30
2012,04,23,00,03,11.30
2012,04,23,00,04,11.20
2012,04,23,00,05,11.20
2012,04,23,00,06,11.20
2012,04,23,00,07,11.10
2012,04,23,00,08,11.10
2012,04,23,00,09,11.10
2012,04,23,00,10,11.10
2012,04,23,00,11,11.10
2012,04,23,00,12,11.10
2012,04,23,00,13,11.10
2012,04,23,00,14,11.00
2012,04,23,00,15,10.90
2012,04,23,00,16,11.00
2012,04,23,00,17,11.10
2012,04,23,00,18,10.90
2012,04,23,00,19,10.90
2012,04,23,00,20,10.90
2012,04,23,00,21,10.90
2012,04,23,00,22,10.90
2012,04,23,00,23,10.90
2012,04,23,00,24,10.90
2012,04,23,00,25,10.90
2012,04,23,00,26,10.90
2012,04,23,00,27,10.90
2012,04,23,00,28,10.90
2012,04,23,00,29,10.90
2012,04,23,00,30,10.90
2012,04,23,00,31,10.90
2012,04,23,00,32,10.90
2012,04,23,00,33,10.90
2012,04,23,00,34,10.90
2012,04,23,00,35,10.90
2012,04,23,00,36,10.90
2012,04,23,00,37,10.90
2012,04,23,00,38,10.90
2012,04,23,00,39,10.90
2012,04,23,00,40,10.90
2012,04,23,00,41,10.90
2012,04,23,00,42,10.90
2012,04,23,00,43,10.80
2012,04,23,00,44,10.80
2012,04,23,00,45,10.80
2012,04,23,00,46,10.80
2012,04,23,00,47,10.70
2012,04,23,00,48,10.70
2012,04,23,00,49,10.70
2012,04,23,00,50,10.70
2012,04,23,00,51,10.60
2012,04,23,00,52,10.60
2012,04,23,00,53,10.60
2012,04,23,00,54,10.60
2012,04,23,00,55,10.60
2012,04,23,00,56,10.60
2012,04,23,00,57,10.60
2012,04,23,00,58,10.60
2012,04,23,00,59,10.60
2012,04,23,01,00,10.50
2012,04,23,01,01,10.40
2012,04,23,01,02,10.40
2012,04,23,01,03,10.40
2012,04,23,01,04,10.40
2012,04,23,01,05,10.40
2012,04,23,01,06,10.40
2012,04,23,01,07,10.40
2012,04,23,01,08,10.40
2012,04,23,01,09,10.40
2012,04,23,01,10,10.30
2012,04,23,01,11,10.30
2012,04,23,01,12,10.30
2012,04,23,01,13,10.30
2012,04,23,01,14,10.30
2012,04,23,01,15,10.30
2012,04,23,01,16,10.30
2012,04,23,01,17,10.20
2012,04,23,01,18,10.20
2012,04,23,01,19,10.20
2012,04,23,01,20,10.20
2012,04,23,01,21,10.20
2012,04,23,01,22,10.20
2012,04,23,01,23,10.10
2012,04,23,01,24,10.10
2012,04,23,01,25,10.10
2012,04,23,01,26,10.10
2012,04,23,01,27,10.10
2012,04,23,01,28,10.10
2012,04,23,01,29,10.10
2012,04,23,01,30,10.10
2012,04,23,01,31,10.00
2012,04,23,01,32,9.90
2012,04,23,01,33,9.90
2012,04,23,01,34,9.90
2012,04,23,01,35,9.90
2012,04,23,01,36,9.90
2012,04,23,01,37,9.90
2012,04,23,01,38,9.90
2012,04,23,01,39,9.90
2012,04,23,01,40,9.90
2012,04,23,01,41,9.90
2012,04,23,01,42,9.90
2012,04,23,01,43,9.90
2012,04,23,01,44,9.90
2012,04,23,01,45,9.90
2012,04,23,01,46,9.90
2012,04,23,01,47,9.80
2012,04,23,01,48,9.80
2012,04,23,01,49,9.80
2012,04,23,01,50,9.80
2012,04,23,01,51,9.80
2012,04,23,01,52,9.80
2012,04,23,01,53,9.80
2012,04,23,01,54,9.80
2012,04,23,01,55,9.80
2012,04,23,01,56,9.80
2012,04,23,01,57,9.80
2012,04,23,01,58,9.80
2012,04,23,01,59,9.80
2012,04,23,02,00,9.70
2012,04,23,02,01,9.70
2012,04,23,02,02,9.70
2012,04,23,02,03,9.70
2012,04,23,02,04,9.70
2012,04,23,02,05,9.70
2012,04,23,02,06,9.70
2012,04,23,02,07,9.70
2012,04,23,02,08,9.70
2012,04,23,02,09,9.70
2012,04,23,02,10,9.70
2012,04,23,02,11,9.70
2012,04,23,02,12,9.70
2012,04,23,02,13,9.70
2012,04,23,02,14,9.70
2012,04,23,02,15,9.60
2012,04,23,02,16,9.60
2012,04,23,02,17,9.60
2012,04,23,02,18,9.60
2012,04,23,02,19,9.60
2012,04,23,02,20,9.60
2012,04,23,02,21,9.60
2012,04,23,02,22,9.60
2012,04,23,02,23,9.60
2012,04,23,02,24,9.60
2012,04,23,02,25,9.60
2012,04,23,02,26,9.60
2012,04,23,02,27,9.50
2012,04,23,02,28,9.50
2012,04,23,02,29,9.50
2012,04,23,02,30,9.50
2012,04,23,02,31,9.50
2012,04,23,02,32,9.50
2012,04,23,02,33,9.50
2012,04,23,02,34,9.50
2012,04,23,02,35,9.50
2012,04,23,02,36,9.50
2012,04,23,02,37,9.50
2012,04,23,02,38,9.50
2012,04,23,02,39,9.40
2012,04,23,02,40,9.40
2012,04,23,02,41,9.40
2012,04,23,02,42,9.40
2012,04,23,02,43,9.40
2012,04,23,02,44,9.40
2012,04,23,02,45,9.40
2012,04,23,02,46,9.40
2012,04,23,02,47,9.40
2012,04,23,02,48,9.40
2012,04,23,02,49,9.30
2012,04,23,02,50,9.30
2012,04,23,02,51,9.30
2012,04,23,02,52,9.30
2012,04,23,02,53,9.30
2012,04,23,02,54,9.20
2012,04,23,02,55,9.20
2012,04,23,02,56,9.20
2012,04,23,02,57,9.20
2012,04,23,02,58,9.20
2012,04,23,02,59,9.20
2012,04,23,03,00,9.20
2012,04,23,03,01,9.20
2012,04,23,03,02,9.20
2012,04,23,03,03,9.20
2012,04,23,03,04,9.10
2012,04,23,03,05,9.10
2012,04,23,03,06,9.10
2012,04,23,03,07,9.10
2012,04,23,03,08,9.10
2012,04,23,03,09,9.00
2012,04,23,03,10,9.00
2012,04,23,03,11,9.00
2012,04,23,03,12,9.10
2012,04,23,03,13,9.10
2012,04,23,03,14,9.10
2012,04,23,03,15,9.10
2012,04,23,03,16,9.10
2012,04,23,03,17,9.10
2012,04,23,03,18,9.20
2012,04,23,03,19,9.20
2012,04,23,03,20,9.20
2012,04,23,03,21,9.20
2012,04,23,03,22,9.20
2012,04,23,03,23,9.20
2012,04,23,03,24,9.20
2012,04,23,03,25,9.20
2012,04,23,03,26,9.20
2012,04,23,03,27,9.20
2012,04,23,03,28,9.20
2012,04,23,03,29,9.20
2012,04,23,03,30,9.20
2012,04,23,03,31,9.20
2012,04,23,03,32,9.10
2012,04,23,03,33,9.10
2012,04,23,03,34,9.10
2012,04,23,03,35,9.10
2012,04,23,03,36,9.10
2012,04,23,03,37,9.10
2012,04,23,03,38,9.10
2012,04,23,03,39,9.00
2012,04,23,03,40,9.00
2012,04,23,03,41,9.00
2012,04,23,03,42,9.00
2012,04,23,03,43,9.00
2012,04,23,03,44,9.00
2012,04,23,03,45,8.90
2012,04,23,03,46,8.90
2012,04,23,03,47,8.90
2012,04,23,03,48,8.90
2012,04,23,03,49,8.90
2012,04,23,03,50,8.90
2012,04,23,03,51,9.00
2012,04,23,03,52,9.00
2012,04,23,03,53,9.00
2012,04,23,03,54,9.00
2012,04,23,03,55,9.10
2012,04,23,03,56,9.10
2012,04,23,03,57,9.10
2012,04,23,03,58,9.10
2012,04,23,03,59,9.10
2012,04,23,04,00,9.10
2012,04,23,04,01,9.00
2012,04,23,04,02,9.00
2012,04,23,04,03,8.90
2012,04,23,04,04,8.90
2012,04,23,04,05,8.90
2012,04,23,04,06,8.80
2012,04,23,04,07,8.80
2012,04,23,04,08,8.80
2012,04,23,04,09,8.80
2012,04,23,04,10,8.70
2012,04,23,04,11,8.70
2012,04,23,04,12,8.70
2012,04,23,04,13,8.70
2012,04,23,04,14,8.70
2012,04,23,04,15,8.70
2012,04,23,04,16,8.70
2012,04,23,04,17,8.70
2012,04,23,04,18,8.70
2012,04,23,04,19,8.70
2012,04,23,04,20,8.70
2012,04,23,04,21,8.70
2012,04,23,04,22,8.70
2012,04,23,04,23,8.70
2012,04,23,04,24,8.70
2012,04,23,04,25,8.60
2012,04,23,04,26,8.60
2012,04,23,04,27,8.60
2012,04,23,04,28,8.60
2012,04,23,04,29,8.60
2012,04,23,04,30,8.60
2012,04,23,04,31,8.60
2012,04,23,04,32,8.60
2012,04,23,04,33,8.70
2012,04,23,04,34,8.70
2012,04,23,04,35,8.70
2012,04,23,04,36,8.70
2012,04,23,04,37,8.70
2012,04,23,04,38,8.70
2012,04,23,04,39,8.70
2012,04,23,04,40,8.70
2012,04,23,04,41,8.70
2012,04,23,04,42,8.70
2012,04,23,04,43,8.80
2012,04,23,04,44,8.90
2012,04,23,04,45,8.90
2012,04,23,04,46,8.90
2012,04,23,04,47,8.90
2012,04,23,04,48,8.90
2012,04,23,04,49,8.90
2012,04,23,04,50,8.90
2012,04,23,04,51,8.90
2012,04,23,04,52,8.80
2012,04,23,04,53,8.80
2012,04,23,04,54,8.90
2012,04,23,04,55,8.90
2012,04,23,04,56,9.00
2012,04,23,04,57,9.00
2012,04,23,04,58,9.00
2012,04,23,04,59,9.00
2012,04,23,05,00,9.00
2012,04,23,05,01,9.00
2012,04,23,05,02,9.00
2012,04,23,05,03,9.00
2012,04,23,05,04,9.00
2012,04,23,05,05,9.00
2012,04,23,05,06,9.00
2012,04,23,05,07,9.00
2012,04,23,05,08,9.00
2012,04,23,05,09,9.10
2012,04,23,05,10,9.10
2012,04,23,05,11,9.10
2012,04,23,05,12,9.10
2012,04,23,05,13,9.10
2012,04,23,05,14,9.10
2012,04,23,05,15,9.10
2012,04,23,05,16,9.10
2012,04,23,05,17,9.10
2012,04,23,05,18,9.10
2012,04,23,05,19,9.10
2012,04,23,05,20,9.10
2012,04,23,05,21,9.10
2012,04,23,05,22,9.10
2012,04,23,05,23,9.10
2012,04,23,05,24,9.10
2012,04,23,05,25,9.10
2012,04,23,05,26,9.10
2012,04,23,05,27,9.10
2012,04,23,05,28,9.10
2012,04,23,05,29,9.10
2012,04,23,05,30,9.10
2012,04,23,05,31,9.10
2012,04,23,05,32,9.10
2012,04,23,05,33,9.10
2012,04,23,05,34,9.10
2012,04,23,05,35,9.10
2012,04,23,05,36,9.10
2012,04,23,05,37,9.10
2012,04,23,05,38,9.10
2012,04,23,05,39,9.10
2012,04,23,05,40,9.10
2012,04,23,05,41,9.10
2012,04,23,05,42,9.20
2012,04,23,05,43,9.20
2012,04,23,05,44,9.20
2012,04,23,05,45,9.20
2012,04,23,05,46,9.20
2012,04,23,05,47,9.20
2012,04,23,05,48,9.20
2012,04,23,05,49,9.20
2012,04,23,05,50,9.20
2012,04,23,05,51,9.20
2012,04,23,05,52,9.20
2012,04,23,05,53,9.30
2012,04,23,05,54,9.30
2012,04,23,05,55,9.30
2012,04,23,05,56,9.30
2012,04,23,05,57,9.30
2012,04,23,05,58,9.30
2012,04,23,05,59,9.30
2012,04,23,06,00,9.30
2012,04,23,06,01,9.30
2012,04,23,06,02,9.30
2012,04,23,06,03,9.30
2012,04,23,06,04,9.30
2012,04,23,06,05,9.20
2012,04,23,06,06,9.20
2012,04,23,06,07,9.20
2012,04,23,06,08,9.20
2012,04,23,06,09,9.20
2012,04,23,06,10,9.20
2012,04,23,06,11,9.20
2012,04,23,06,12,9.20
2012,04,23,06,13,9.20
2012,04,23,06,14,9.20
2012,04,23,06,15,9.20
2012,04,23,06,16,9.20
2012,04,23,06,17,9.20
2012,04,23,06,18,9.20
2012,04,23,06,19,9.20
2012,04,23,06,20,9.20
2012,04,23,06,21,9.20
2012,04,23,06,22,9.20
2012,04,23,06,23,9.20
2012,04,23,06,24,9.20
2012,04,23,06,25,9.20
2012,04,23,06,26,9.20
2012,04,23,06,27,9.20
2012,04,23,06,28,9.20
2012,04,23,06,29,9.20
2012,04,23,06,30,9.20
2012,04,23,06,31,9.20
2012,04,23,06,32,9.20
2012,04,23,06,33,9.20
2012,04,23,06,34,9.20
2012,04,23,06,35,9.20
2012,04,23,06,36,9.20
2012,04,23,06,37,9.20
2012,04,23,06,38,9.20
2012,04,23,06,39,9.20
2012,04,23,06,40,9.20
2012,04,23,06,41,9.20
2012,04,23,06,42,9.20
2012,04,23,06,43,9.20
2012,04,23,06,44,9.20
2012,04,23,06,45,9.20
2012,04,23,06,46,9.20
2012,04,23,06,47,9.20
2012,04,23,06,48,9.20
2012,04,23,06,49,9.20
2012,04,23,06,50,9.20
2012,04,23,06,51,9.20
2012,04,23,06,52,9.20
2012,04,23,06,53,9.20
2012,04,23,06,54,9.30
2012,04,23,06,55,9.30
2012,04,23,06,56,9.30
2012,04,23,06,57,9.40
2012,04,23,06,58,9.40
2012,04,23,06,59,9.40
2012,04,23,07,00,9.50
2012,04,23,07,01,9.50
2012,04,23,07,02,9.50
2012,04,23,07,03,9.50
2012,04,23,07,04,9.60
2012,04,23,07,05,9.60
2012,04,23,07,06,9.60
2012,04,23,07,07,9.60
2012,04,23,07,08,9.70
2012,04,23,07,09,9.70
2012,04,23,07,10,9.70
2012,04,23,07,11,9.70
2012,04,23,07,12,9.70
2012,04,23,07,13,9.80
2012,04,23,07,14,9.80
2012,04,23,07,15,9.80
2012,04,23,07,16,9.80
2012,04,23,07,17,9.90
2012,04,23,07,18,9.90
2012,04,23,07,19,9.90
2012,04,23,07,20,9.90
2012,04,23,07,21,9.90
2012,04,23,07,22,9.90
2012,04,23,07,23,10.00
2012,04,23,07,24,10.10
2012,04,23,07,25,10.10
2012,04,23,07,26,10.10
2012,04,23,07,27,10.20
2012,04,23,07,28,10.30
2012,04,23,07,29,10.30
2012,04,23,07,30,10.40
2012,04,23,07,31,10.50
2012,04,23,07,32,10.60
2012,04,23,07,33,10.60
2012,04,23,07,34,10.70
2012,04,23,07,35,10.80
2012,04,23,07,36,10.90
2012,04,23,07,37,11.00
2012,04,23,07,38,11.10
2012,04,23,07,39,11.20
2012,04,23,07,40,11.20
2012,04,23,07,41,11.30
2012,04,23,07,42,11.30
2012,04,23,07,43,11.30
2012,04,23,07,44,11.40
2012,04,23,07,45,11.40
2012,04,23,07,46,11.40
2012,04,23,07,47,11.40
2012,04,23,07,48,11.40
2012,04,23,07,49,11.40
2012,04,23,07,50,11.40
2012,04,23,07,51,11.60
2012,04,23,07,52,11.60
2012,04,23,07,53,11.60
2012,04,23,07,54,11.60
2012,04,23,07,55,11.70
2012,04,23,07,56,11.80
2012,04,23,07,57,11.80
2012,04,23,07,58,11.80
2012,04,23,07,59,11.80
2012,04,23,08,00,11.80
2012,04,23,08,01,11.90
2012,04,23,08,02,11.90
2012,04,23,08,03,12.00
2012,04,23,08,04,12.00
2012,04,23,08,05,12.00
2012,04,23,08,06,12.10
2012,04,23,08,07,12.10
2012,04,23,08,08,12.20
2012,04,23,08,09,12.20
2012,04,23,08,10,12.30
2012,04,23,08,11,12.30
2012,04,23,08,12,12.30
2012,04,23,08,13,12.40
2012,04,23,08,14,12.50
2012,04,23,08,15,12.50
2012,04,23,08,16,12.60
2012,04,23,08,17,12.70
2012,04,23,08,18,12.80
2012,04,23,08,19,12.80
2012,04,23,08,20,12.80
2012,04,23,08,21,12.80
2012,04,23,08,22,12.80
2012,04,23,08,23,12.90
2012,04,23,08,24,12.90
2012,04,23,08,25,12.90
2012,04,23,08,26,13.00
2012,04,23,08,27,13.00
2012,04,23,08,28,13.00
2012,04,23,08,29,13.00
2012,04,23,08,30,13.00
2012,04,23,08,31,13.10
2012,04,23,08,32,13.10
2012,04,23,08,33,13.20
2012,04,23,08,34,13.30
2012,04,23,08,35,13.30
2012,04,23,08,36,13.40
2012,04,23,08,37,13.50
2012,04,23,08,38,13.60
2012,04,23,08,39,13.70
2012,04,23,08,40,13.70
2012,04,23,08,41,13.70
2012,04,23,08,42,13.70
2012,04,23,08,43,13.70
2012,04,23,08,44,13.70
2012,04,23,08,45,13.60
2012,04,23,08,46,13.60
2012,04,23,08,47,13.50
2012,04,23,08,48,13.50
2012,04,23,08,49,13.50
2012,04,23,08,50,13.40
2012,04,23,08,51,13.40
2012,04,23,08,52,13.40
2012,04,23,08,53,13.40
2012,04,23,08,54,13.50
2012,04,23,08,55,13.40
2012,04,23,08,56,13.40
2012,04,23,08,57,13.40
2012,04,23,08,58,13.40
2012,04,23,08,59,13.50
2012,04,23,09,00,13.50
2012,04,23,09,01,13.50
2012,04,23,09,02,13.40
2012,04,23,09,03,13.40
2012,04,23,09,04,13.40
2012,04,23,09,05,13.50
2012,04,23,09,06,13.50
2012,04,23,09,07,13.60
2012,04,23,09,08,13.60
2012,04,23,09,09,13.60
2012,04,23,09,10,13.70
2012,04,23,09,11,13.70
2012,04,23,09,12,13.70
2012,04,23,09,13,13.80
2012,04,23,09,14,13.80
2012,04,23,09,15,13.90
2012,04,23,09,16,13.90
2012,04,23,09,17,13.80
2012,04,23,09,18,13.70
2012,04,23,09,19,13.70
2012,04,23,09,20,13.70
2012,04,23,09,21,13.70
2012,04,23,09,22,13.80
2012,04,23,09,23,13.90
2012,04,23,09,24,13.90
2012,04,23,09,25,14.00
2012,04,23,09,26,14.00
2012,04,23,09,27,14.00
2012,04,23,09,28,13.90
2012,04,23,09,29,13.90
2012,04,23,09,30,14.00
2012,04,23,09,31,14.00
2012,04,23,09,32,14.00
2012,04,23,09,33,14.10
2012,04,23,09,34,14.10
2012,04,23,09,35,14.10
2012,04,23,09,36,14.10
2012,04,23,09,37,14.20
2012,04,23,09,38,14.20
2012,04,23,09,39,14.10
2012,04,23,09,40,14.00
2012,04,23,09,41,14.00
2012,04,23,09,42,13.90
2012,04,23,09,43,13.80
2012,04,23,09,44,13.70
2012,04,23,09,45,13.70
2012,04,23,09,46,13.70
2012,04,23,09,47,13.80
2012,04,23,09,48,13.80
2012,04,23,09,49,13.90
2012,04,23,09,50,14.00
2012,04,23,09,51,14.10
2012,04,23,09,52,14.10
2012,04,23,09,53,14.20
2012,04,23,09,54,14.40
2012,04,23,09,55,14.50
2012,04,23,09,56,14.60
2012,04,23,09,57,14.60
2012,04,23,09,58,14.70
2012,04,23,09,59,14.60
2012,04,23,10,00,14.50
2012,04,23,10,01,14.40
2012,04,23,10,02,14.30
2012,04,23,10,03,14.40
2012,04,23,10,04,14.40
2012,04,23,10,05,14.30
2012,04,23,10,06,14.20
2012,04,23,10,07,14.10
2012,04,23,10,08,13.90
2012,04,23,10,09,13.90
2012,04,23,10,10,13.80
2012,04,23,10,11,13.70
2012,04,23,10,12,13.70
2012,04,23,10,13,13.60
2012,04,23,10,14,13.60
2012,04,23,10,15,13.60
2012,04,23,10,16,13.70
2012,04,23,10,17,13.60
2012,04,23,10,18,13.50
2012,04,23,10,19,13.50
2012,04,23,10,20,13.40
2012,04,23,10,21,13.30
2012,04,23,10,22,13.30
2012,04,23,10,23,13.30
2012,04,23,10,24,13.40
2012,04,23,10,25,13.30
2012,04,23,10,26,13.30
2012,04,23,10,27,13.30
2012,04,23,10,28,13.40
2012,04,23,10,29,13.40
2012,04,23,10,30,13.50
2012,04,23,10,31,13.50
2012,04,23,10,32,13.50
2012,04,23,10,33,13.50
2012,04,23,10,34,13.50
2012,04,23,10,35,13.50
2012,04,23,10,36,13.50
2012,04,23,10,37,13.50
2012,04,23,10,38,13.50
2012,04,23,10,39,13.50
2012,04,23,10,40,13.60
2012,04,23,10,41,13.70
2012,04,23,10,42,13.80
2012,04,23,10,43,13.90
2012,04,23,10,44,14.00
2012,04,23,10,45,14.00
2012,04,23,10,46,14.00
2012,04,23,10,47,14.00
2012,04,23,10,48,14.10
2012,04,23,10,49,14.20
2012,04,23,10,50,14.20
2012,04,23,10,51,14.20
2012,04,23,10,52,14.20
2012,04,23,10,53,14.20
2012,04,23,10,54,14.30
2012,04,23,10,55,14.40
2012,04,23,10,56,14.40
2012,04,23,10,57,14.40
2012,04,23,10,58,14.40
2012,04,23,10,59,14.40
2012,04,23,11,00,14.20
2012,04,23,11,01,14.30
2012,04,23,11,02,14.20
2012,04,23,11,03,14.20
2012,04,23,11,04,14.20
2012,04,23,11,05,14.30
2012,04,23,11,06,14.40
2012,04,23,11,07,14.30
2012,04,23,11,08,14.40
2012,04,23,11,09,14.40
2012,04,23,11,10,14.50
2012,04,23,11,11,14.40
2012,04,23,11,12,14.40
2012,04,23,11,13,14.50
2012,04,23,11,14,14.60
2012,04,23,11,15,14.70
2012,04,23,11,16,14.80
2012,04,23,11,17,14.80
2012,04,23,11,18,14.80
2012,04,23,11,19,14.70
2012,04,23,11,20,14.60
2012,04,23,11,21,14.60
2012,04,23,11,22,14.50
2012,04,23,11,23,14.50
2012,04,23,11,24,14.60
2012,04,23,11,25,14.80
2012,04,23,11,26,14.90
2012,04,23,11,27,14.90
2012,04,23,11,28,14.90
2012,04,23,11,29,14.80
2012,04,23,11,30,14.80
2012,04,23,11,31,14.80
2012,04,23,11,32,14.80
2012,04,23,11,33,14.80
2012,04,23,11,34,14.80
2012,04,23,11,35,14.70
2012,04,23,11,36,14.60
2012,04,23,11,37,14.60
2012,04,23,11,38,14.60
2012,04,23,11,39,14.70
2012,04,23,11,40,14.70
2012,04,23,11,41,14.80
2012,04,23,11,42,14.90
2012,04,23,11,43,14.80
2012,04,23,11,44,14.80
2012,04,23,11,45,14.80
2012,04,23,11,46,14.80
2012,04,23,11,47,14.80
2012,04,23,11,48,14.70
2012,04,23,11,49,14.70
2012,04,23,11,50,14.70
2012,04,23,11,51,14.70
2012,04,23,11,52,14.70
2012,04,23,11,53,14.70
2012,04,23,11,54,14.80
2012,04,23,11,55,15.00
2012,04,23,11,56,15.00
2012,04,23,11,57,15.00
2012,04,23,11,58,14.90
2012,04,23,11,59,14.90
2012,04,23,12,00,14.80
2012,04,23,12,01,14.90
2012,04,23,12,02,14.90
2012,04,23,12,03,14.90
2012,04,23,12,04,15.00
2012,04,23,12,05,15.10
2012,04,23,12,06,15.10
2012,04,23,12,07,15.10
2012,04,23,12,08,15.00
2012,04,23,12,09,15.00
2012,04,23,12,10,15.20
2012,04,23,12,11,15.30
2012,04,23,12,12,15.40
2012,04,23,12,13,15.50
2012,04,23,12,14,15.40
2012,04,23,12,15,15.30
2012,04,23,12,16,15.20
2012,04,23,12,17,15.10
2012,04,23,12,18,15.10
2012,04,23,12,19,15.10
2012,04,23,12,20,15.10
2012,04,23,12,21,15.10
2012,04,23,12,22,15.10
2012,04,23,12,23,15.00
2012,04,23,12,24,14.90
2012,04,23,12,25,14.90
2012,04,23,12,26,14.90
2012,04,23,12,27,14.80
2012,04,23,12,28,14.80
2012,04,23,12,29,14.90
2012,04,23,12,30,15.00
2012,04,23,12,31,15.00
2012,04,23,12,32,14.90
2012,04,23,12,33,14.90
2012,04,23,12,34,14.90
2012,04,23,12,35,14.90
2012,04,23,12,36,15.00
2012,04,23,12,37,15.10
2012,04,23,12,38,15.00
2012,04,23,12,39,15.00
2012,04,23,12,40,14.90
2012,04,23,12,41,14.90
2012,04,23,12,42,14.90
2012,04,23,12,43,15.00
2012,04,23,12,44,15.00
2012,04,23,12,45,15.10
2012,04,23,12,46,15.20
2012,04,23,12,47,15.20
2012,04,23,12,48,15.30
2012,04,23,12,49,15.30
2012,04,23,12,50,15.30
2012,04,23,12,51,15.30
2012,04,23,12,52,15.40
2012,04,23,12,53,15.50
2012,04,23,12,54,15.50
2012,04,23,12,55,15.60
2012,04,23,12,56,15.70
2012,04,23,12,57,15.70
2012,04,23,12,58,15.80
2012,04,23,12,59,15.80
2012,04,23,13,00,15.80
2012,04,23,13,01,15.80
2012,04,23,13,02,15.80
2012,04,23,13,03,15.80
2012,04,23,13,04,15.90
2012,04,23,13,05,15.90
2012,04,23,13,06,15.80
2012,04,23,13,07,15.70
2012,04,23,13,08,15.50
2012,04,23,13,09,15.20
2012,04,23,13,10,15.10
2012,04,23,13,11,15.10
2012,04,23,13,12,15.00
2012,04,23,13,13,14.90
2012,04,23,13,14,14.70
2012,04,23,13,15,14.50
2012,04,23,13,16,14.40
2012,04,23,13,17,14.40
2012,04,23,13,18,14.40
2012,04,23,13,19,14.40
2012,04,23,13,20,14.40
2012,04,23,13,21,14.50
2012,04,23,13,22,14.40
2012,04,23,13,23,14.30
2012,04,23,13,24,14.30
2012,04,23,13,25,14.30
2012,04,23,13,26,14.40
2012,04,23,13,27,14.50
2012,04,23,13,28,14.50
2012,04,23,13,29,14.60
2012,04,23,13,30,14.70
2012,04,23,13,31,14.80
2012,04,23,13,32,14.80
2012,04,23,13,33,14.80
2012,04,23,13,34,14.90
2012,04,23,13,35,15.00
2012,04,23,13,36,15.10
2012,04,23,13,37,15.20
2012,04,23,13,38,15.30
2012,04,23,13,39,15.40
2012,04,23,13,40,15.50
2012,04,23,13,41,15.60
2012,04,23,13,42,15.70
2012,04,23,13,43,15.70
2012,04,23,13,44,15.70
2012,04,23,13,45,15.70
2012,04,23,13,46,15.70
2012,04,23,13,47,15.70
2012,04,23,13,48,15.70
2012,04,23,13,49,15.80
2012,04,23,13,50,15.80
2012,04,23,13,51,15.90
2012,04,23,13,52,15.90
2012,04,23,13,53,15.80
2012,04,23,13,54,15.80
2012,04,23,13,55,15.80
2012,04,23,13,56,15.70
2012,04,23,13,57,15.70
2012,04,23,13,58,15.70
2012,04,23,13,59,15.80
2012,04,23,14,00,15.80
2012,04,23,14,01,15.80
2012,04,23,14,02,16.00
2012,04,23,14,03,16.10
2012,04,23,14,04,16.30
2012,04,23,14,05,16.50
2012,04,23,14,06,16.70
2012,04,23,14,07,16.70
2012,04,23,14,08,16.70
2012,04,23,14,09,16.70
2012,04,23,14,10,16.70
2012,04,23,14,11,16.70
2012,04,23,14,12,16.90
2012,04,23,14,13,16.90
2012,04,23,14,14,16.90
2012,04,23,14,15,16.90
2012,04,23,14,16,16.90
2012,04,23,14,17,16.90
2012,04,23,14,18,17.00
2012,04,23,14,19,17.00
2012,04,23,14,20,17.10
2012,04,23,14,21,17.20
2012,04,23,14,22,17.20
2012,04,23,14,23,17.20
2012,04,23,14,24,17.30
2012,04,23,14,25,17.30
2012,04,23,14,26,17.40
2012,04,23,14,27,17.60
2012,04,23,14,28,17.60
2012,04,23,14,29,17.60
2012,04,23,14,30,17.60
2012,04,23,14,31,17.50
2012,04,23,14,32,17.40
2012,04,23,14,33,17.30
2012,04,23,14,34,17.20
2012,04,23,14,35,17.10
2012,04,23,14,36,16.80
2012,04,23,14,37,16.70
2012,04,23,14,38,16.70
2012,04,23,14,39,16.70
2012,04,23,14,40,16.70
2012,04,23,14,41,16.60
2012,04,23,14,42,16.50
2012,04,23,14,43,16.40
2012,04,23,14,44,16.40
2012,04,23,14,45,16.40
2012,04,23,14,46,16.30
2012,04,23,14,47,16.40
2012,04,23,14,48,16.40
2012,04,23,14,49,16.40
2012,04,23,14,50,16.50
2012,04,23,14,51,16.60
2012,04,23,14,52,16.60
2012,04,23,14,53,16.50
2012,04,23,14,54,16.40
2012,04,23,14,55,16.40
2012,04,23,14,56,16.20
2012,04,23,14,57,16.10
2012,04,23,14,58,16.00
2012,04,23,14,59,15.90
2012,04,23,15,00,15.90
2012,04,23,15,01,15.90
2012,04,23,15,02,15.90
2012,04,23,15,03,15.80
2012,04,23,15,04,15.90
2012,04,23,15,05,15.90
2012,04,23,15,06,16.10
2012,04,23,15,07,16.20
2012,04,23,15,08,16.20
2012,04,23,15,09,16.30
2012,04,23,15,10,16.30
2012,04,23,15,11,16.40
2012,04,23,15,12,16.40
2012,04,23,15,13,16.40
2012,04,23,15,14,16.40
2012,04,23,15,15,16.40
2012,04,23,15,16,16.40
2012,04,23,15,17,16.30
2012,04,23,15,18,16.30
2012,04,23,15,19,16.30
2012,04,23,15,20,16.30
2012,04,23,15,21,16.30
2012,04,23,15,22,16.30
2012,04,23,15,23,16.30
2012,04,23,15,24,16.40
2012,04,23,15,25,16.50
2012,04,23,15,26,16.70
2012,04,23,15,27,16.70
2012,04,23,15,28,16.70
2012,04,23,15,29,16.70
2012,04,23,15,30,16.70
2012,04,23,15,31,16.80
2012,04,23,15,32,16.80
2012,04,23,15,33,16.80
2012,04,23,15,34,16.80
2012,04,23,15,35,16.90
2012,04,23,15,36,17.00
2012,04,23,15,37,17.00
2012,04,23,15,38,17.00
2012,04,23,15,39,17.00
2012,04,23,15,40,17.00
2012,04,23,15,41,17.10
2012,04,23,15,42,17.00
2012,04,23,15,43,16.90
2012,04,23,15,44,16.80
2012,04,23,15,45,16.90
2012,04,23,15,46,16.90
2012,04,23,15,47,16.70
2012,04,23,15,48,16.60
2012,04,23,15,49,16.60
2012,04,23,15,50,16.60
2012,04,23,15,51,16.50
2012,04,23,15,52,16.40
2012,04,23,15,53,16.40
2012,04,23,15,54,16.30
2012,04,23,15,55,16.30
2012,04,23,15,56,16.30
2012,04,23,15,57,16.20
2012,04,23,15,58,16.20
2012,04,23,15,59,16.20
2012,04,23,16,00,16.20
2012,04,23,16,01,16.20
2012,04,23,16,02,16.20
2012,04,23,16,03,16.20
2012,04,23,16,04,16.10
2012,04,23,16,05,16.10
2012,04,23,16,06,16.20
2012,04,23,16,07,16.20
2012,04,23,16,08,16.10
2012,04,23,16,09,16.10
2012,04,23,16,10,16.10
2012,04,23,16,11,16.10
2012,04,23,16,12,16.20
2012,04,23,16,13,16.30
2012,04,23,16,14,16.20
2012,04,23,16,15,16.20
2012,04,23,16,16,16.20
2012,04,23,16,17,16.10
2012,04,23,16,18,16.10
2012,04,23,16,19,16.10
2012,04,23,16,20,16.00
2012,04,23,16,21,15.90
2012,04,23,16,22,15.90
2012,04,23,16,23,16.10
2012,04,23,16,24,16.10
2012,04,23,16,25,16.20
2012,04,23,16,26,16.20
2012,04,23,16,27,16.20
2012,04,23,16,28,16.10
2012,04,23,16,29,16.10
2012,04,23,16,30,16.10
2012,04,23,16,31,16.10
2012,04,23,16,32,16.10
2012,04,23,16,33,16.20
2012,04,23,16,34,16.30
2012,04,23,16,35,16.30
2012,04,23,16,36,16.40
2012,04,23,16,37,16.50
2012,04,23,16,38,16.60
2012,04,23,16,39,16.60
2012,04,23,16,40,16.70
2012,04,23,16,41,16.70
2012,04,23,16,42,16.70
2012,04,23,16,43,16.70
2012,04,23,16,44,16.70
2012,04,23,16,45,16.70
2012,04,23,16,46,16.70
2012,04,23,16,47,16.70
2012,04,23,16,48,16.70
2012,04,23,16,49,16.70
2012,04,23,16,50,16.70
2012,04,23,16,51,16.60
2012,04,23,16,52,16.40
2012,04,23,16,53,16.40
2012,04,23,16,54,16.40
2012,04,23,16,55,16.40
2012,04,23,16,56,16.40
2012,04,23,16,57,16.40
2012,04,23,16,58,16.40
2012,04,23,16,59,16.40
2012,04,23,17,00,16.40
2012,04,23,17,01,16.40
2012,04,23,17,02,16.40
2012,04,23,17,03,16.40
2012,04,23,17,04,16.40
2012,04,23,17,05,16.40
2012,04,23,17,06,16.50
2012,04,23,17,07,16.60
2012,04,23,17,08,16.60
2012,04,23,17,09,16.70
2012,04,23,17,10,16.70
2012,04,23,17,11,16.80
2012,04,23,17,12,16.90
2012,04,23,17,13,17.00
2012,04,23,17,14,17.10
2012,04,23,17,15,17.20
2012,04,23,17,16,17.20
2012,04,23,17,17,17.30
2012,04,23,17,18,17.20
2012,04,23,17,19,17.10
2012,04,23,17,20,17.00
2012,04,23,17,21,16.90
2012,04,23,17,22,16.80
2012,04,23,17,23,16.70
2012,04,23,17,24,16.70
2012,04,23,17,25,16.70
2012,04,23,17,26,16.70
2012,04,23,17,27,16.80
2012,04,23,17,28,16.90
2012,04,23,17,29,16.90
2012,04,23,17,30,16.90
2012,04,23,17,31,16.90
2012,04,23,17,32,16.90
2012,04,23,17,33,16.90
2012,04,23,17,34,16.90